When you browse on this site, cookies collect data to enhance your experience and personalize the content and advertising you see.
Visit our Privacy Policy to learn more. By continuing to use the site, you agree to this use of cookies and data.
  • In Austria
  • List of Countries
  • For 7 days
  • Water Temperature
  • Weather Map
  • News
  • Weather Widgets
  • user-avatar
    Login

    Hourly Weather Kyrdzhali

    Today, 15 October, Tuesday

    Time Temperature Precipitation Wind Pressure Humidity
    00:00 +15°C° 0 mm 1 mps 730 mmHg 51%
    01:00 +15°C° 0 mm 1 mps 730 mmHg 53%
    02:00 +15°C° 0 mm 1 mps 729 mmHg 55%
    03:00 +14°C° 0 mm 1 mps 729 mmHg 56%
    04:00 +14°C° 0 mm 1 mps 729 mmHg 58%
    05:00 +14°C° 0 mm 1 mps 729 mmHg 59%
    06:00 +15°C° 0 mm 1 mps 729 mmHg 57%
    07:00 +16°C° 0 mm 1 mps 729 mmHg 55%
    08:00 +18°C° 0 mm 1 mps 729 mmHg 53%
    09:00 +20°C° 0 mm 1 mps 729 mmHg 47%
    10:00 +22°C° 0 mm 1 mps 729 mmHg 41%
    11:00 +24°C° 0 mm 1 mps 729 mmHg 35%
    12:00 +25°C° 0 mm 1 mps 729 mmHg 33%
    13:00 +26°C° 0 mm 1 mps 729 mmHg 31%
    14:00 +27°C° 0 mm 2 mps 729 mmHg 28%
    15:00 +26°C° 0 mm 1 mps 728 mmHg 33%
    16:00 +24°C° 0 mm 1 mps 728 mmHg 37%
    17:00 +23°C° 0 mm 1 mps 727 mmHg 42%
    18:00 +22°C° 0 mm 1 mps 727 mmHg 45%
    19:00 +20°C° 0 mm 1 mps 727 mmHg 47%
    20:00 +17°C° 0 mm 0 mps 728 mmHg 50%
    21:00 +18°C° 0 mm 1 mps 728 mmHg 51%
    22:00 +18°C° 0 mm 1 mps 728 mmHg 52%
    23:00 +16°C° 0 mm 1 mps 728 mmHg 53%

    Tomorrow, 16 October, Wednesday

    Time Temperature Precipitation Wind Pressure Humidity
    00:00 +16°C° 0 mm 1 mps 727 mmHg 55%
    01:00 +15°C° 0 mm 1 mps 727 mmHg 58%
    02:00 +15°C° 0 mm 1 mps 727 mmHg 61%
    03:00 +14°C° 0 mm 1 mps 727 mmHg 62%
    04:00 +14°C° 0 mm 1 mps 727 mmHg 64%
    05:00 +14°C° 0 mm 1 mps 727 mmHg 66%
    06:00 +14°C° 0 mm 1 mps 727 mmHg 64%
    07:00 +15°C° 0 mm 1 mps 727 mmHg 62%
    08:00 +16°C° 0 mm 1 mps 728 mmHg 61%
    09:00 +19°C° 0 mm 1 mps 728 mmHg 54%
    10:00 +22°C° 0 mm 1 mps 728 mmHg 46%
    11:00 +24°C° 0 mm 1 mps 728 mmHg 39%
    12:00 +24°C° 0 mm 2 mps 728 mmHg 37%
    13:00 +25°C° 0 mm 2 mps 728 mmHg 35%
    14:00 +26°C° 0 mm 2 mps 727 mmHg 33%
    15:00 +25°C° 0 mm 1 mps 727 mmHg 37%
    16:00 +24°C° 0 mm 1 mps 727 mmHg 41%
    17:00 +23°C° 0 mm 1 mps 726 mmHg 45%
    18:00 +21°C° 0 mm 1 mps 727 mmHg 49%
    19:00 +20°C° 0 mm 1 mps 727 mmHg 52%
    20:00 +19°C° 0 mm 1 mps 727 mmHg 55%
    21:00 +18°C° 0 mm 1 mps 727 mmHg 56%
    22:00 +18°C° 0 mm 1 mps 727 mmHg 57%
    23:00 +16°C° 0 mm 1 mps 728 mmHg 59%

    Day after tomorrow, 17 October, Thursday

    Time Temperature Precipitation Wind Pressure Humidity
    00:00 +16°C° 0 mm 1 mps 728 mmHg 61%
    01:00 +15°C° 0 mm 1 mps 727 mmHg 63%
    02:00 +15°C° 0 mm 1 mps 727 mmHg 65%
    03:00 +15°C° 0 mm 1 mps 727 mmHg 66%
    04:00 +14°C° 0 mm 1 mps 727 mmHg 67%
    05:00 +14°C° 0 mm 1 mps 727 mmHg 67%
    06:00 +15°C° 0 mm 1 mps 728 mmHg 64%
    07:00 +16°C° 0 mm 1 mps 728 mmHg 61%
    08:00 +18°C° 0 mm 1 mps 728 mmHg 58%
    09:00 +20°C° 0 mm 1 mps 728 mmHg 52%
    10:00 +22°C° 0 mm 1 mps 729 mmHg 45%
    11:00 +24°C° 0 mm 2 mps 729 mmHg 39%
    12:00 +25°C° 0 mm 2 mps 729 mmHg 36%
    13:00 +25°C° 0 mm 2 mps 728 mmHg 34%
    14:00 +26°C° 0 mm 2 mps 728 mmHg 31%
    15:00 +25°C° 0 mm 1 mps 728 mmHg 35%
    16:00 +24°C° 0 mm 1 mps 728 mmHg 39%
    17:00 +23°C° 0 mm 1 mps 728 mmHg 43%
    18:00 +21°C° 0 mm 1 mps 728 mmHg 46%
    19:00 +20°C° 0 mm 1 mps 728 mmHg 49%
    20:00 +17°C° 0 mm 0 mps 728 mmHg 51%
    21:00 +16°C° 0 mm 0 mps 728 mmHg 52%
    22:00 +18°C° 0 mm 1 mps 728 mmHg 52%
    23:00 +18°C° 0 mm 1 mps 728 mmHg 53%

    18 October, Friday

    Time Temperature Precipitation Wind Pressure Humidity
    00:00 +16°C° 0 mm 1 mps 728 mmHg 54%
    01:00 +16°C° 0 mm 1 mps 728 mmHg 55%
    02:00 +16°C° 0 mm 1 mps 728 mmHg 56%
    03:00 +15°C° 0 mm 1 mps 728 mmHg 57%
    04:00 +15°C° 0 mm 1 mps 728 mmHg 58%
    05:00 +15°C° 0 mm 1 mps 728 mmHg 59%
    06:00 +15°C° 0 mm 1 mps 728 mmHg 57%
    07:00 +16°C° 0 mm 1 mps 728 mmHg 55%
    08:00 +18°C° 0 mm 1 mps 729 mmHg 53%
    09:00 +20°C° 0 mm 1 mps 729 mmHg 47%
    10:00 +22°C° 0 mm 1 mps 729 mmHg 41%
    11:00 +24°C° 0 mm 2 mps 729 mmHg 35%
    12:00 +25°C° 0 mm 2 mps 729 mmHg 34%
    13:00 +25°C° 0 mm 2 mps 729 mmHg 32%
    14:00 +26°C° 0 mm 2 mps 729 mmHg 31%
    15:00 +25°C° 0 mm 2 mps 729 mmHg 35%
    16:00 +24°C° 0 mm 1 mps 728 mmHg 38%
    17:00 +23°C° 0 mm 1 mps 728 mmHg 42%
    18:00 +21°C° 0 mm 1 mps 728 mmHg 44%
    19:00 +20°C° 0 mm 1 mps 728 mmHg 46%
    20:00 +19°C° 0 mm 1 mps 728 mmHg 48%
    21:00 +18°C° 0 mm 1 mps 728 mmHg 49%
    22:00 +18°C° 0 mm 1 mps 728 mmHg 50%
    23:00 +16°C° 0 mm 1 mps 729 mmHg 51%

    19 October, Saturday

    Time Temperature Precipitation Wind Pressure Humidity
    00:00 +16°C° 0 mm 1 mps 728 mmHg 52%
    01:00 +16°C° 0 mm 1 mps 728 mmHg 53%
    02:00 +15°C° 0 mm 1 mps 728 mmHg 54%
    03:00 +15°C° 0 mm 1 mps 728 mmHg 54%
    04:00 +15°C° 0 mm 1 mps 728 mmHg 55%
    05:00 +14°C° 0 mm 1 mps 728 mmHg 56%
    06:00 +15°C° 0 mm 1 mps 729 mmHg 54%
    07:00 +16°C° 0 mm 1 mps 729 mmHg 53%
    08:00 +18°C° 0 mm 1 mps 729 mmHg 52%
    09:00 +19°C° 0 mm 1 mps 729 mmHg 47%
    10:00 +20°C° 0 mm 2 mps 730 mmHg 42%
    11:00 +23°C° 0 mm 2 mps 730 mmHg 36%
    12:00 +24°C° 0 mm 2 mps 730 mmHg 34%
    13:00 +25°C° 0 mm 2 mps 729 mmHg 32%
    14:00 +25°C° 0 mm 2 mps 729 mmHg 30%
    15:00 +24°C° 0 mm 2 mps 729 mmHg 33%
    16:00 +23°C° 0 mm 1 mps 729 mmHg 37%
    17:00 +22°C° 0 mm 1 mps 728 mmHg 40%
    18:00 +21°C° 0 mm 1 mps 728 mmHg 42%
    19:00 +19°C° 0 mm 1 mps 728 mmHg 44%
    20:00 +18°C° 0 mm 1 mps 729 mmHg 47%
    21:00 +18°C° 0 mm 1 mps 729 mmHg 49%
    22:00 +16°C° 0 mm 1 mps 729 mmHg 52%
    23:00 +16°C° 0 mm 1 mps 729 mmHg 54%

    20 October, Sunday

    Time Temperature Precipitation Wind Pressure Humidity
    00:00 +15°C° 0 mm 1 mps 729 mmHg 56%
    01:00 +15°C° 0 mm 1 mps 729 mmHg 58%
    02:00 +14°C° 0 mm 1 mps 729 mmHg 59%
    03:00 +14°C° 0 mm 1 mps 729 mmHg 60%
    04:00 +14°C° 0 mm 1 mps 729 mmHg 61%
    05:00 +14°C° 0 mm 1 mps 729 mmHg 62%
    06:00 +14°C° 0 mm 1 mps 729 mmHg 60%
    07:00 +15°C° 0 mm 1 mps 729 mmHg 58%
    08:00 +16°C° 0 mm 1 mps 729 mmHg 57%
    09:00 +19°C° 0 mm 1 mps 730 mmHg 51%
    10:00 +21°C° 0 mm 1 mps 730 mmHg 46%
    11:00 +21°C° 0 mm 2 mps 730 mmHg 40%
    12:00 +23°C° 0 mm 2 mps 730 mmHg 38%
    13:00 +24°C° 0 mm 2 mps 730 mmHg 35%
    14:00 +25°C° 0 mm 2 mps 729 mmHg 33%
    15:00 +24°C° 0 mm 1 mps 729 mmHg 37%
    16:00 +22°C° 0 mm 1 mps 729 mmHg 41%
    17:00 +21°C° 0 mm 1 mps 729 mmHg 45%
    18:00 +20°C° 0 mm 1 mps 729 mmHg 48%
    19:00 +19°C° 0 mm 1 mps 729 mmHg 52%
    20:00 +15°C° 0 mm 0 mps 729 mmHg 55%
    21:00 +15°C° 0 mm 0 mps 729 mmHg 56%
    22:00 +15°C° 0 mm 0 mps 730 mmHg 57%
    23:00 +15°C° 0 mm 1 mps 730 mmHg 57%
    Show more